Regional Weather Roundup
Issued by NWS

Home | Current Version | Previous Version | Graphics & Text | Print | Product List | Glossary On
Versions: 1 2 3 4 5 6 7 8 9 10 11 12 13 14 15 16 17 18 19 20 21 22 23 24 25 26 27 28 29 30 31 32 33 34 35 36 37 38 39 40 41 42 43 44 45 46 47 48 49 50
000
ASUS43 KIND 291559
RWRIN

WEATHER ROUNDUP FOR INDIANA
NATIONAL WEATHER SERVICE INDIANAPOLIS IN
1200 PM EDT FRI JUL 29 2016

NOTE: "FAIR" INDICATES FEW OR NO CLOUDS BELOW 12,000 FEET WITH NO
SIGNIFICANT WEATHER AND/OR OBSTRUCTIONS TO VISIBILITY.

* - STATION DOES NOT REPORT WEATHER SUCH AS PRECIPITATION OR FOG.

+ - STATION NOT QUALITY CONTROLLED BY THE NATIONAL WEATHER SERVICE.
    USE DATA WITH CAUTION...ESPECIALLY DEWPOINT AND RELATIVE
    HUMIDITY OBSERVATIONS.

INZ001>003-010>013-019-020-291700-
NORTHWEST INDIANA

CITY           SKY/WX    TMP DP  RH WIND       PRES   REMARKS
KNOX *+        SUNNY     79  61  53 CALM      29.94R
MONTICELLO +   SUNNY     83  65  56 S5        29.92F

$$

LMZ046-743>745-291700-
SOUTHERN LAKE MICHIGAN

STATION/POSITION TIME  TEMP    WIND        PRES    WAVE
                       AIR SEA DIR/SP/G            HT
                 (UTC) (F)     (DEG/KT/KT) (MB)    (FT)
BURNS HARBOR     1500   75      40/  4/  6 1014.2R
MICHIGAN CITY    1500   77     320/  3/  3   N/A
5NW MICH CITY    1500   74 77   40/  2/  4   N/A     1

$$

INZ004-005-014>016-021>024-291700-
NORTH CENTRAL INDIANA

CITY           SKY/WX    TMP DP  RH WIND       PRES   REMARKS
ELKHART        MOSUNNY   77  68  73 E8        29.97R
GOSHEN         MOSUNNY   81  67  62 NE5       29.95S
PERU/GRISSOM   CLOUDY    84  66  54 VRB5      29.92F
SOUTH BEND     PTSUNNY   79  70  74 VRB3      29.95S
WARSAW +       SUNNY     81  68  65 E3        29.95S

$$

INZ006>009-017-018-025>027-291700-
NORTHEAST INDIANA

CITY           SKY/WX    TMP DP  RH WIND       PRES   REMARKS
ANGOLA *+        N/A     77  66  69 N5        29.97R
FORT WAYNE     MOSUNNY   82  68  62 SE5       29.95R

$$

INZ028-029-035-036-043>045-051>053-291700-
WEST CENTRAL INDIANA

CITY           SKY/WX    TMP DP  RH WIND       PRES   REMARKS
CRAWFORDSVL +  MOSUNNY   79  73  84 SW3       29.94F
LAFAYETTE      CLOUDY    81  72  74 S5        29.92F
TERRE HAUTE    MOSUNNY   83  72  69 NE3       29.93F

$$

INZ030>032-037>040-046>048-054>057-064-065-291700-
CENTRAL INDIANA

CITY           SKY/WX    TMP DP  RH WIND       PRES   REMARKS
COLUMBUS       SUNNY     81  73  78 SE3       29.96R
INDIANAPOLIS   PTSUNNY   83  71  67 SW7       29.95S
-EAGLE CREEK   PTSUNNY   83  72  69 S6        29.93S
KOKOMO *+      PTSUNNY   81  66  61 CALM      29.94S
SHELBYVILLE    MOSUNNY   82  72  71 VRB5      29.95S
ZIONSVILLE +   MOSUNNY   80  71  71 SW5       29.95S

$$

INZ033-034-041-042-049-050-058-059-291700-
EAST CENTRAL INDIANA

CITY           SKY/WX    TMP DP  RH WIND       PRES   REMARKS
MUNCIE         MOSUNNY   84  69  60 VRB5      29.95R

$$

INZ060-061-067>069-081>083-085>088-291700-
SOUTHWEST INDIANA

CITY           SKY/WX    TMP DP  RH WIND       PRES   REMARKS
EVANSVILLE     PTSUNNY   80  73  79 SW5       29.95F
HUNTINGBURG *+ CLOUDY    79  72  78 S8        29.96S

$$

INZ062-063-066-070>080-084-089>092-291700-
SOUTH CENTRAL AND SOUTHEAST INDIANA

CITY           SKY/WX    TMP DP  RH WIND       PRES   REMARKS
BLOOMINGTON    PTSUNNY   81  71  71 CALM      29.95F
MADISON *+     MOSUNNY   81  70  69 CALM      29.98S
SEYMOUR +      MOSUNNY   81  73  78 CALM      29.96R

$$





USA.gov is the U.S. government's official web portal to all federal, state and local government web resources and services.